[[{"header":{"parameterUnit":"m.s-1","parameterCategory":1,"la1":30.2991,"la2":30.254,"lo1":-89.0895,"lo2":-89.0444,"dy":0.0017,"dx":0.0017,"nx":28,"ny":28,"refTime":"2025-11-30T03:00:00:Z","depth":0,"parameterNumber":2,"parameterNumberName":"U-component_of_WINDS"},"data":[0,0,0,0,0,0,0,0,0,0,0,0,0,0,0,0,0,0,0,0,0,0,0,0,0,0,0,0,0,0,0,0,0,0,0,0,0,0,0,0,0,0,0,0,0,0,0,0,0,0,0,0,0,0,0,0,0,0,-1.3915,-1.3915,0,-1.3998,-1.3999,-1.4,-1.3982,-1.398,-1.3979,-1.3977,-1.406,-1.4063,-1.4067,0,0,0,0,0,0,0,0,0,0,0,0,0,-1.3735,-1.3739,-1.3914,-1.3915,-1.3917,-1.3998,-1.3999,-1.4,-1.3982,-1.398,-1.3978,-1.3977,-1.4059,-1.4063,-1.4067,0,0,0,0,0,0,0,0,0,0,0,0,0,-1.3815,-1.374,-1.3914,-1.3917,-1.3919,-1.3997,-1.3999,-1.4,-1.3982,-1.398,-1.3978,-1.3976,-1.4057,-1.4063,-1.4068,-1.4148,0,0,-1.4085,-1.4087,0,0,0,0,0,0,0,0,-1.3811,-1.3822,-1.3916,-1.3917,-1.3919,-1.3977,-1.3966,-1.4049,-1.3983,-1.3958,-1.3977,-1.3975,-1.4034,-1.4041,-1.4062,-1.4152,-1.4155,-1.4085,-1.4088,-1.4091,-1.4092,0,0,0,0,0,0,0,-1.3805,-1.3818,-1.3947,-1.3917,-1.3919,-1.3913,-1.3922,-1.3982,-1.4008,-1.396,-1.3959,-1.3969,-1.4034,-1.4057,-1.4064,-1.4156,-1.4085,-1.409,-1.4093,-1.4095,-1.4313,-1.4316,0,0,0,0,0,0,-1.3799,-1.3814,-1.3945,-1.395,-1.3858,-1.3918,-1.3928,-1.3961,-1.4007,-1.4012,-1.3971,-1.3968,-1.4048,-1.4057,-1.4066,-1.4163,-1.4091,-1.4096,-1.4099,-1.4311,-1.4314,-1.4317,0,0,0,0,0,0,-1.3795,-1.3811,-1.3941,-1.3882,-1.3898,-1.3924,-1.396,-1.3963,-1.3986,-1.4016,-1.402,-1.399,-1.4047,-1.4059,-1.4127,-1.4165,-1.4098,-1.4103,-1.4308,-1.4312,-1.4315,-1.4356,0,0,0,0,0,0,-1.379,-1.381,-1.3842,-1.3882,-1.3901,-1.4003,-1.3963,-1.3967,-1.3996,-1.3993,-1.4034,-1.4039,-1.4046,-1.4119,-1.4133,-1.4172,-1.4107,-1.4305,-1.431,-1.4314,-1.4351,-1.4361,-1.4369,0,0,0,0,0,-1.3784,-1.385,-1.3844,-1.3859,-1.3942,-1.4005,-1.4015,-1.4023,-1.3999,-1.403,-1.4049,-1.4037,-1.4158,-1.4127,-1.4142,-1.4182,-1.4302,-1.4308,-1.4314,-1.4348,-1.4359,-1.4368,0,0,0,0,0,0,-1.3812,-1.3855,-1.3849,-1.393,-1.3964,-1.4002,-1.4042,-1.4035,-1.4077,-1.4072,-1.4079,-1.4088,-1.4158,-1.4177,-1.4141,-1.4261,-1.4227,-1.4236,-1.4247,-1.4258,-1.4266,-1.4261,-1.4112,0,0,0,0,0,-1.3828,-1.3877,-1.3911,-1.3979,-1.3996,-1.4016,-1.4044,-1.4047,-1.4082,-1.4096,-1.412,-1.4154,-1.4199,-1.4229,-1.4273,-1.4353,-1.4361,-1.4388,-1.4396,-1.4403,-1.4412,-1.4454,-1.4466,-1.4335,-1.4335,-1.4335,0,0,-1.3861,-1.389,-1.3921,-1.3985,-1.4012,-1.4062,-1.4029,-1.4082,-1.4119,-1.4104,-1.4171,-1.4189,-1.4227,-1.4301,-1.4335,-1.4319,-1.4449,-1.4411,-1.4416,-1.4421,-1.4461,-1.4474,-1.4485,-1.4339,-1.4339,-1.4338,0,0,-1.3947,-1.3974,-1.4034,-1.4061,-1.4102,-1.4114,-1.4128,-1.4166,-1.4178,-1.4245,-1.4235,-1.4276,-1.4355,-1.4382,-1.4406,-1.4499,-1.4489,-1.4512,-1.4558,-1.4599,-1.461,-1.4619,-1.4652,-1.4664,-1.452,-1.452,-1.452,0,-1.3983,-1.4058,-1.4065,-1.412,-1.4148,-1.4136,-1.4196,-1.4221,-1.4274,-1.4293,-1.4273,-1.437,-1.4395,-1.4475,-1.4497,-1.4517,-1.4532,-1.4509,-1.4608,-1.4617,-1.4626,-1.4657,-1.467,-1.4522,-1.4522,-1.4522,-1.4522,0,-1.41,-1.4152,-1.4195,-1.4247,-1.4279,-1.4336,-1.4349,-1.4381,-1.438,-1.4393,-1.446,-1.4489,-1.4537,-1.4556,-1.4556,-1.4636,-1.4624,-1.4606,-1.4572,-1.4641,-1.4671,-1.4683,-1.4526,-1.4525,-1.4525,-1.4524,0,0,-1.4209,-1.4262,-1.4278,-1.4301,-1.4344,-1.4383,-1.4438,-1.4486,-1.4513,-1.4548,-1.4594,-1.4659,-1.4642,-1.4669,-1.4671,-1.4707,-1.4778,-1.4684,-1.4685,-1.4701,-1.4867,-1.4882,-1.4896,-1.477,-1.4773,-1.4774,-1.4864,0,-1.43,-1.4399,-1.4405,-1.4493,-1.4541,-1.4529,-1.4576,-1.4607,-1.462,-1.466,-1.4674,-1.472,-1.4694,-1.4711,-1.4745,-1.4762,-1.4811,-1.4755,-1.4813,-1.4815,-1.4806,-1.4911,-1.4927,-1.5011,-1.4876,-1.4878,-1.4879,0,-1.4419,-1.4459,-1.4553,-1.4588,-1.4608,-1.4651,-1.4694,-1.4733,-1.4766,-1.4773,-1.4802,-1.4798,-1.4852,-1.4814,-1.4888,-1.485,-1.4873,-1.4884,-1.4887,-1.4895,-1.4853,-1.4923,-1.5038,-1.5051,-1.4897,-1.4896,-1.4895,0,-1.4491,-1.4567,-1.4633,-1.4652,-1.4694,-1.4725,-1.4743,-1.4774,-1.4802,-1.4839,-1.4857,-1.4899,-1.4922,-1.4954,-1.4961,-1.4933,-1.5035,-1.4998,-1.5041,-1.5041,-1.5066,-1.5065,-1.5188,-1.5078,-1.5078,-1.5077,-1.5077,0,-1.4592,-1.465,-1.4665,-1.4706,-1.477,-1.4775,-1.4837,-1.4853,-1.488,-1.4922,-1.4913,-1.4952,-1.4958,-1.4998,-1.5003,-1.5064,-1.5074,-1.508,-1.5081,-1.5082,-1.5082,-1.5099,-1.5094,-1.5081,-1.508,-1.5079,-1.5079,0,-1.4684,-1.4696,-1.4767,-1.4801,-1.481,-1.4856,-1.4883,-1.4921,-1.4932,-1.4985,-1.4998,-1.5015,-1.5062,-1.5071,-1.5126,-1.5129,-1.5201,-1.5195,-1.519,-1.519,-1.5234,-1.523,-1.5374,-1.5393,-1.527,-1.5271,-1.5272,0,-1.4749,-1.4793,-1.4831,-1.4859,-1.4879,-1.4924,-1.4953,-1.4958,-1.4987,-1.5027,-1.5059,-1.5105,-1.5142,-1.5217,-1.5233,-1.5274,-1.527,-1.5318,-1.5277,-1.5276,-1.5272,-1.527,-1.5274,-1.5326,-1.5328,-1.5329,-1.533,0,-1.4862,-1.4866,-1.4908,-1.4952,-1.4986,-1.502,-1.5053,-1.5075,-1.5084,-1.5117,-1.5165,-1.5194,-1.525,-1.5295,-1.5336,-1.5352,-1.5343,-1.5342,-1.5354,-1.5357,-1.5353,-1.5356,-1.5213,-1.5339,-1.5338,-1.5338,-1.5337,-1.5337,-1.4943,-1.4982,-1.5015,-1.5061,-1.5086,-1.5116,-1.5153,-1.5168,-1.5209,-1.5256,-1.5255,-1.5307,-1.5336,-1.539,-1.5409,-1.5449,-1.5434,-1.5452,-1.5457,-1.5461,-1.5466,-1.5345,-1.5456,-1.5456,-1.5455,-1.5455,-1.5455,0,-1.5058,-1.5078,-1.512,-1.5166,-1.5202,-1.5189,-1.5223,-1.5254,-1.5301,-1.5329,-1.5366,-1.542,-1.5463,-1.5481,-1.5523,-1.5551,-1.5547,-1.5562,-1.5561,-1.5565,-1.5477,-1.5462,-1.5564,-1.5564,-1.5564,-1.5564,-1.5564,-1.5564,-1.5122,-1.5186,-1.5193,-1.5269,-1.5288,-1.534,-1.5361,-1.5388,-1.541,-1.5472,-1.5508,-1.552,-1.5544,-1.5587,-1.5625,-1.5629,-1.5645,-1.5662,-1.5664,-1.5582,-1.5571,-1.5561,-1.5547,-1.5665,-1.5665,-1.5749,-1.575,-1.575]},{"header":{"parameterUnit":"m.s-1","parameterCategory":1,"la1":30.2991,"la2":30.254,"lo1":-89.0895,"lo2":-89.0444,"dy":0.0017,"dx":0.0017,"nx":28,"ny":28,"refTime":"2025-11-30T03:00:00:Z","depth":0,"parameterNumber":3,"parameterNumberName":"V-component_of_WINDS"},"data":[0,0,0,0,0,0,0,0,0,0,0,0,0,0,0,0,0,0,0,0,0,0,0,0,0,0,0,0,0,0,0,0,0,0,0,0,0,0,0,0,0,0,0,0,0,0,0,0,0,0,0,0,0,0,0,0,0,0,-4.7668,-4.7669,0,-4.7752,-4.7753,-4.7754,-4.7702,-4.77,-4.7698,-4.7695,-4.7777,-4.7781,-4.7785,0,0,0,0,0,0,0,0,0,0,0,0,0,-4.7459,-4.7464,-4.7668,-4.7669,-4.767,-4.7752,-4.7753,-4.7754,-4.7703,-4.77,-4.7697,-4.7694,-4.7775,-4.778,-4.7786,0,0,0,0,0,0,0,0,0,0,0,0,0,-4.7547,-4.7465,-4.7668,-4.7655,-4.7654,-4.7752,-4.7753,-4.7755,-4.7704,-4.77,-4.7696,-4.7693,-4.7773,-4.778,-4.7786,-4.79,0,0,-4.7807,-4.781,0,0,0,0,0,0,0,0,-4.7542,-4.7555,-4.7656,-4.7656,-4.7656,-4.7713,-4.7709,-4.7803,-4.7704,-4.7685,-4.7695,-4.7691,-4.7758,-4.7766,-4.7789,-4.7904,-4.7908,-4.7807,-4.7811,-4.7814,-4.7816,0,0,0,0,0,0,0,-4.7536,-4.7551,-4.7701,-4.7657,-4.7657,-4.7643,-4.7652,-4.7727,-4.7741,-4.7686,-4.7683,-4.7694,-4.7757,-4.7783,-4.7791,-4.7909,-4.7807,-4.7813,-4.7817,-4.782,-4.8123,-4.8127,0,0,0,0,0,0,-4.7532,-4.7546,-4.7699,-4.7704,-4.7589,-4.765,-4.7659,-4.7698,-4.774,-4.7743,-4.7697,-4.7691,-4.7774,-4.7783,-4.7794,-4.7932,-4.7814,-4.782,-4.7824,-4.8119,-4.8124,-4.8128,0,0,0,0,0,0,-4.7528,-4.7546,-4.7695,-4.7624,-4.7642,-4.7657,-4.7702,-4.7702,-4.7728,-4.7748,-4.7749,-4.7721,-4.7771,-4.7784,-4.7875,-4.7934,-4.7823,-4.7829,-4.8114,-4.812,-4.8126,-4.8209,0,0,0,0,0,0,-4.7522,-4.7545,-4.7589,-4.7626,-4.7646,-4.7777,-4.7705,-4.7706,-4.774,-4.7733,-4.7771,-4.7774,-4.7769,-4.7865,-4.7882,-4.7941,-4.7835,-4.8109,-4.8117,-4.8124,-4.8201,-4.8217,-4.8231,0,0,0,0,0,-4.7515,-4.7608,-4.7592,-4.7611,-4.7703,-4.778,-4.7792,-4.7787,-4.7745,-4.7789,-4.7802,-4.7772,-4.7924,-4.7875,-4.7893,-4.7956,-4.8105,-4.8115,-4.8124,-4.8194,-4.8214,-4.823,0,0,0,0,0,0,-4.7576,-4.7612,-4.7595,-4.7703,-4.7739,-4.7772,-4.7828,-4.7807,-4.7855,-4.7846,-4.7836,-4.7845,-4.794,-4.7956,-4.7901,-4.8069,-4.8008,-4.8021,-4.8056,-4.8074,-4.8089,-4.8085,-4.784,0,0,0,0,0,-4.7602,-4.7664,-4.7692,-4.7784,-4.7803,-4.7813,-4.7846,-4.7839,-4.7876,-4.789,-4.7909,-4.7945,-4.8001,-4.8038,-4.809,-4.8202,-4.821,-4.8253,-4.8268,-4.828,-4.8293,-4.8355,-4.8375,-4.8158,-4.8158,-4.8158,0,0,-4.7657,-4.7685,-4.7724,-4.7797,-4.7825,-4.7889,-4.7826,-4.7895,-4.7942,-4.79,-4.7989,-4.8004,-4.8042,-4.8145,-4.8191,-4.8161,-4.8354,-4.8292,-4.8301,-4.8308,-4.8367,-4.8387,-4.8405,-4.8165,-4.8163,-4.8162,0,0,-4.7791,-4.7817,-4.7898,-4.7927,-4.797,-4.7975,-4.7995,-4.8031,-4.804,-4.8129,-4.8099,-4.8153,-4.8249,-4.8279,-4.8306,-4.8451,-4.8426,-4.8467,-4.8547,-4.8607,-4.8625,-4.864,-4.8694,-4.8713,-4.8479,-4.8479,-4.8479,0,-4.7853,-4.795,-4.7942,-4.8015,-4.8049,-4.8015,-4.8097,-4.8124,-4.8181,-4.8205,-4.817,-4.8292,-4.8315,-4.8425,-4.8461,-4.8483,-4.8505,-4.8465,-4.8623,-4.8638,-4.8652,-4.8704,-4.8724,-4.8484,-4.8484,-4.8483,-4.8483,0,-4.8026,-4.8093,-4.8153,-4.8212,-4.8251,-4.8328,-4.8332,-4.8372,-4.8361,-4.837,-4.8461,-4.8487,-4.8546,-4.857,-4.8559,-4.8679,-4.866,-4.8624,-4.8564,-4.8678,-4.8727,-4.8746,-4.8492,-4.849,-4.8488,-4.8487,0,0,-4.8202,-4.8256,-4.8279,-4.8306,-4.8351,-4.8402,-4.8476,-4.8535,-4.8572,-4.8611,-4.8675,-4.8756,-4.8725,-4.8756,-4.8747,-4.88,-4.8916,-4.8758,-4.8759,-4.8789,-4.9053,-4.9082,-4.9105,-4.8898,-4.8902,-4.8905,-4.905,0,-4.8341,-4.8475,-4.847,-4.8595,-4.8658,-4.8626,-4.8691,-4.8725,-4.8735,-4.8788,-4.8797,-4.8858,-4.8809,-4.8828,-4.8879,-4.8891,-4.8969,-4.888,-4.8958,-4.8961,-4.8953,-4.913,-4.916,-4.9297,-4.9069,-4.9072,-4.9074,0,-4.8521,-4.857,-4.8702,-4.8739,-4.8765,-4.8825,-4.8879,-4.893,-4.8967,-4.897,-4.9006,-4.8989,-4.9064,-4.8999,-4.9103,-4.9043,-4.9073,-4.9084,-4.9089,-4.9099,-4.9027,-4.9147,-4.934,-4.9362,-4.9104,-4.9101,-4.9099,0,-4.8641,-4.8739,-4.8831,-4.8855,-4.8899,-4.8942,-4.8962,-4.8996,-4.9032,-4.9078,-4.9102,-4.9155,-4.9185,-4.9226,-4.9223,-4.9176,-4.933,-4.9264,-4.9335,-4.9336,-4.9372,-4.937,-4.9576,-4.9386,-4.9386,-4.9385,-4.9385,0,-4.8798,-4.8881,-4.8886,-4.8944,-4.9035,-4.9027,-4.9118,-4.9133,-4.9163,-4.9222,-4.9195,-4.9251,-4.9243,-4.9298,-4.9295,-4.9383,-4.9395,-4.9401,-4.94,-4.9405,-4.9405,-4.9428,-4.9419,-4.9391,-4.9389,-4.9388,-4.9387,0,-4.8949,-4.8956,-4.9055,-4.9089,-4.91,-4.9166,-4.9195,-4.9249,-4.9256,-4.9331,-4.9347,-4.9358,-4.9422,-4.9423,-4.9494,-4.9493,-4.9601,-4.9587,-4.959,-4.9588,-4.9661,-4.9655,-4.9891,-4.9922,-4.9709,-4.9711,-4.9713,0,-4.9051,-4.9114,-4.9157,-4.9195,-4.9219,-4.9281,-4.9318,-4.9312,-4.9352,-4.94,-4.9448,-4.951,-4.9559,-4.9662,-4.9675,-4.973,-4.972,-4.9798,-4.9728,-4.9732,-4.9724,-4.9722,-4.9729,-4.9813,-4.9815,-4.9817,-4.9819,0,-4.9232,-4.9233,-4.9289,-4.9347,-4.9393,-4.9437,-4.9478,-4.9511,-4.9509,-4.9555,-4.9621,-4.966,-4.9734,-4.9796,-4.9849,-4.9868,-4.9844,-4.984,-4.9861,-4.9869,-4.9869,-4.9873,-4.9631,-4.9836,-4.9834,-4.9833,-4.9832,-4.9831,-4.9364,-4.942,-4.9459,-4.9523,-4.9553,-4.9593,-4.9646,-4.966,-4.9716,-4.9779,-4.977,-4.9844,-4.9879,-4.9949,-4.9972,-5.0029,-5.0002,-5.003,-5.0038,-5.0046,-5.0055,-4.9857,-5.0038,-5.0038,-5.0037,-5.0037,-5.0036,0,-4.9546,-4.957,-4.9629,-4.9689,-4.9739,-4.9713,-4.9757,-4.98,-4.9867,-4.9902,-4.9952,-5.0028,-5.0088,-5.0106,-5.0164,-5.0206,-5.0196,-5.0221,-5.022,-5.0225,-5.0075,-5.0054,-5.0228,-5.0228,-5.0228,-5.0228,-5.0228,-5.0228,-4.9648,-4.9742,-4.9747,-4.9856,-4.9878,-4.9953,-4.9981,-5.0017,-5.0046,-5.0133,-5.0184,-5.0195,-5.0224,-5.0283,-5.0337,-5.034,-5.0364,-5.0394,-5.0394,-5.0254,-5.0235,-5.0217,-5.0197,-5.0399,-5.0399,-5.0539,-5.0541,-5.0542]}]]